Inverness, United Kingdom

5:41 AM GMT on February 21, 2018 (GMT +0000)
Inverness

Weather History for EGPE - June, 2013

Change the Weather History Date:

Wednesday, June 26, 2013

  Actual Average Record
Temperature  
Mean Temperature 52 °F -  
Max Temperature 59 °F 63 °F 75 °F (2003)
Min Temperature 46 °F 50 °F 37 °F (2012)
Degree Days  
Heating Degree Days 12    
Growing Degree Days 2 (Base 50)    
Moisture  
Dew Point 47 °F    
Average Humidity 76    
Maximum Humidity 94    
Minimum Humidity 59    
Precipitation  
Precipitation 0.00 in - - ()
Sea Level Pressure  
Sea Level Pressure 30.43 in    
Wind  
Wind Speed 6 mph ()    
Max Wind Speed 10 mph    
Max Gust Speed -    
Visibility 6.2 miles    
Events      
Averages and records for this station are not official NWS values.
T = Trace of Precipitation, MM = Missing Value Source: Averaged Metar Reports

Daily Weather History Graph

Daily Weather History Graph

Search for Another Location

Airport or City:

Trip Planner

Search our weather history database for the weather conditions in past years. The results will help you decide how hot, cold, wet, or windy it might be!

Date:

Astronomy

Jun. 26, 2013 Rise Set
Actual Time 4:18 AM BST 10:19 PM BST
Civil Twilight 3:07 AM BST 11:30 PM BST
Nautical Twilight Sun does not rise 12:46 AM BST
Astronomical Twilight Sun does not rise Sun does not rise
Moon 11:31 PM BST (6/26) 8:46 AM BST (6/26)
Length of Visible Light 20h 23m
Length of Day
18h 00m
Waning Gibbous, 87% of the Moon is Illuminated
Jun 26
Waning Gibbous
Jun 30
Last Quarter
Jul 8
New
Jul 16
First Quarter
Jul 22
Full

Hourly Weather History & Observations

Time (BST) Temp. Dew Point Humidity Pressure Visibility Wind Dir Wind Speed Gust Speed Precip Events Conditions
12:20 AM 51.8 °F 50.0 °F 94% 30.39 in 6.2 mi SW 8.1 mph - N/A   Mostly Cloudy
12:50 AM 53.6 °F 50.0 °F 88% 30.39 in 6.2 mi SW 4.6 mph - N/A   Mostly Cloudy
1:20 AM 53.6 °F 50.0 °F 88% 30.39 in 6.2 mi SW 5.8 mph - N/A   Mostly Cloudy
1:50 AM 51.8 °F 50.0 °F 94% 30.39 in 6.2 mi WSW 5.8 mph - N/A   Mostly Cloudy
2:20 AM 53.6 °F 48.2 °F 82% 30.39 in 6.2 mi WSW 8.1 mph - N/A   Mostly Cloudy
2:50 AM 53.6 °F 48.2 °F 82% 30.39 in 6.2 mi WSW 6.9 mph - N/A   Mostly Cloudy
3:20 AM 51.8 °F 48.2 °F 88% 30.39 in 6.2 mi WSW 8.1 mph - N/A   Mostly Cloudy
3:50 AM 53.6 °F 48.2 °F 82% 30.39 in 6.2 mi WSW 8.1 mph - N/A   Scattered Clouds
4:20 AM 53.6 °F 48.2 °F 82% 30.39 in 6.2 mi WSW 6.9 mph - N/A   Scattered Clouds
4:50 AM 51.8 °F 48.2 °F 88% 30.39 in 6.2 mi WSW 6.9 mph - N/A   Scattered Clouds
5:20 AM 51.8 °F 48.2 °F 88% 30.39 in 6.2 mi SW 4.6 mph - N/A   Scattered Clouds
5:50 AM 51.8 °F 48.2 °F 88% 30.42 in 6.2 mi WSW 5.8 mph - N/A   Scattered Clouds
6:20 AM 51.8 °F 48.2 °F 88% 30.42 in 6.2 mi WSW 4.6 mph - N/A   Scattered Clouds
6:50 AM 51.8 °F 48.2 °F 88% 30.42 in 6.2 mi WSW 5.8 mph - N/A   Scattered Clouds
7:20 AM 55.4 °F 48.2 °F 77% 30.42 in 6.2 mi WSW 8.1 mph - N/A   Scattered Clouds
7:50 AM 55.4 °F 48.2 °F 77% 30.42 in 6.2 mi WSW 6.9 mph - N/A   Scattered Clouds
8:20 AM 55.4 °F 48.2 °F 77% 30.42 in 6.2 mi West 8.1 mph - N/A   Scattered Clouds
8:50 AM 55.4 °F 48.2 °F 77% 30.42 in 6.2 mi West 10.4 mph - N/A   Scattered Clouds
9:20 AM 55.4 °F 48.2 °F 77% 30.42 in 6.2 mi West 10.4 mph - N/A   Overcast
9:50 AM 55.4 °F 46.4 °F 72% 30.42 in 6.2 mi West 10.4 mph - N/A   Mostly Cloudy
10:20 AM 55.4 °F 46.4 °F 72% 30.42 in 6.2 mi West 10.4 mph - N/A   Mostly Cloudy
10:50 AM 57.2 °F 46.4 °F 67% 30.45 in 6.2 mi West 6.9 mph - N/A   Mostly Cloudy
11:20 AM 57.2 °F 46.4 °F 67% 30.45 in 6.2 mi West 5.8 mph - N/A   Mostly Cloudy
11:50 AM 57.2 °F 44.6 °F 63% 30.45 in 6.2 mi West 10.4 mph - N/A   Overcast
12:20 PM 57.2 °F 46.4 °F 67% 30.45 in 6.2 mi West 6.9 mph - N/A   Mostly Cloudy
12:50 PM 57.2 °F 48.2 °F 72% 30.45 in 6.2 mi NNW 4.6 mph - N/A   Mostly Cloudy
1:20 PM 59.0 °F 44.6 °F 59% 30.45 in 6.2 mi West 9.2 mph - N/A   Mostly Cloudy
1:50 PM 59.0 °F 44.6 °F 59% 30.45 in 6.2 mi WNW 8.1 mph - N/A   Mostly Cloudy
2:20 PM 59.0 °F 44.6 °F 59% 30.45 in 6.2 mi West 8.1 mph - N/A   Mostly Cloudy
2:50 PM 57.2 °F 44.6 °F 63% 30.45 in 6.2 mi NW 8.1 mph - N/A   Mostly Cloudy
3:20 PM 59.0 °F 46.4 °F 63% 30.45 in 6.2 mi NW 9.2 mph - N/A   Mostly Cloudy
3:50 PM 59.0 °F 46.4 °F 63% 30.45 in 6.2 mi NNW 6.9 mph - N/A   Mostly Cloudy
4:20 PM 59.0 °F 46.4 °F 63% 30.45 in 6.2 mi North 4.6 mph - N/A   Mostly Cloudy
4:50 PM 59.0 °F 46.4 °F 63% 30.45 in 6.2 mi North 4.6 mph - N/A   Mostly Cloudy
5:20 PM 59.0 °F 46.4 °F 63% 30.45 in 6.2 mi Variable 2.3 mph - N/A   Mostly Cloudy
5:50 PM 57.2 °F 48.2 °F 72% 30.45 in 6.2 mi North 3.5 mph - N/A   Mostly Cloudy
6:20 PM 57.2 °F 46.4 °F 67% 30.45 in 6.2 mi Variable 2.3 mph - N/A   Mostly Cloudy
6:50 PM 57.2 °F 48.2 °F 72% 30.45 in 6.2 mi Variable 2.3 mph - N/A   Mostly Cloudy
7:20 PM 57.2 °F 48.2 °F 72% 30.45 in 6.2 mi North 4.6 mph - N/A   Scattered Clouds
7:50 PM 57.2 °F 48.2 °F 72% 30.42 in 6.2 mi NNE 4.6 mph - N/A   Scattered Clouds
8:20 PM 57.2 °F 46.4 °F 67% 30.42 in 6.2 mi North 3.5 mph - N/A   Scattered Clouds
8:50 PM 55.4 °F 46.4 °F 72% 30.45 in 6.2 mi North 5.8 mph - N/A   Scattered Clouds
9:20 PM 53.6 °F 46.4 °F 77% 30.45 in 6.2 mi North 5.8 mph - N/A   Scattered Clouds
9:50 PM 51.8 °F 46.4 °F 82% 30.45 in 6.2 mi NNE 4.6 mph - N/A   Mostly Cloudy
10:20 PM 50.0 °F 46.4 °F 87% 30.45 in 6.2 mi NNE 4.6 mph - N/A   Overcast
10:50 PM 50.0 °F 46.4 °F 87% 30.45 in 6.2 mi Calm Calm - N/A   Mostly Cloudy
11:20 PM 46.4 °F 44.6 °F 93% 30.42 in 6.2 mi Calm Calm - N/A   Unknown
11:50 PM 46.4 °F 42.8 °F 87% 30.42 in 6.2 mi South 2.3 mph - N/A   Unknown